Year,Month,Day,Hour,Minute,Value (Times are PST for temperature in C)
2009,07,10,00,00,11.00
2009,07,10,00,01,11.00
2009,07,10,00,02,11.00
2009,07,10,00,03,11.00
2009,07,10,00,04,11.10
2009,07,10,00,05,11.00
2009,07,10,00,06,11.10
2009,07,10,00,07,11.00
2009,07,10,00,08,11.10
2009,07,10,00,09,11.10
2009,07,10,00,10,11.10
2009,07,10,00,11,11.10
2009,07,10,00,12,11.10
2009,07,10,00,13,11.10
2009,07,10,00,14,11.00
2009,07,10,00,15,11.00
2009,07,10,00,16,11.00
2009,07,10,00,17,11.00
2009,07,10,00,18,10.90
2009,07,10,00,19,10.90
2009,07,10,00,20,10.90
2009,07,10,00,21,10.90
2009,07,10,00,22,10.90
2009,07,10,00,23,10.90
2009,07,10,00,24,11.00
2009,07,10,00,25,11.00
2009,07,10,00,26,11.00
2009,07,10,00,27,11.10
2009,07,10,00,28,11.10
2009,07,10,00,29,11.10
2009,07,10,00,30,11.10
2009,07,10,00,31,11.10
2009,07,10,00,32,11.10
2009,07,10,00,33,11.10
2009,07,10,00,34,11.10
2009,07,10,00,35,11.10
2009,07,10,00,36,11.10
2009,07,10,00,37,11.10
2009,07,10,00,38,11.10
2009,07,10,00,39,11.10
2009,07,10,00,40,11.10
2009,07,10,00,41,11.10
2009,07,10,00,42,11.00
2009,07,10,00,43,11.00
2009,07,10,00,44,11.00
2009,07,10,00,45,11.00
2009,07,10,00,46,11.00
2009,07,10,00,47,11.00
2009,07,10,00,48,11.00
2009,07,10,00,49,11.00
2009,07,10,00,50,11.00
2009,07,10,00,51,11.00
2009,07,10,00,52,11.00
2009,07,10,00,53,10.90
2009,07,10,00,54,10.90
2009,07,10,00,55,10.90
2009,07,10,00,56,10.90
2009,07,10,00,57,10.90
2009,07,10,00,58,11.00
2009,07,10,00,59,10.90
2009,07,10,01,00,10.90
2009,07,10,01,01,10.90
2009,07,10,01,02,10.90
2009,07,10,01,03,10.90
2009,07,10,01,04,10.90
2009,07,10,01,05,10.90
2009,07,10,01,06,10.90
2009,07,10,01,07,10.90
2009,07,10,01,08,10.90
2009,07,10,01,09,10.90
2009,07,10,01,10,10.90
2009,07,10,01,11,10.90
2009,07,10,01,12,10.90
2009,07,10,01,13,10.90
2009,07,10,01,14,10.90
2009,07,10,01,15,10.90
2009,07,10,01,16,10.90
2009,07,10,01,17,10.80
2009,07,10,01,18,10.80
2009,07,10,01,19,10.80
2009,07,10,01,20,10.80
2009,07,10,01,21,10.80
2009,07,10,01,22,10.80
2009,07,10,01,23,10.80
2009,07,10,01,24,10.80
2009,07,10,01,25,10.80
2009,07,10,01,26,10.80
2009,07,10,01,27,10.80
2009,07,10,01,28,10.80
2009,07,10,01,29,10.80
2009,07,10,01,30,10.80
2009,07,10,01,31,10.80
2009,07,10,01,32,10.80
2009,07,10,01,33,10.80
2009,07,10,01,34,10.70
2009,07,10,01,35,10.70
2009,07,10,01,36,10.70
2009,07,10,01,37,10.70
2009,07,10,01,38,10.70
2009,07,10,01,39,10.70
2009,07,10,01,40,10.70
2009,07,10,01,41,10.70
2009,07,10,01,42,10.80
2009,07,10,01,43,10.80
2009,07,10,01,44,10.80
2009,07,10,01,45,10.80
2009,07,10,01,46,10.80
2009,07,10,01,47,10.80
2009,07,10,01,48,10.80
2009,07,10,01,49,10.80
2009,07,10,01,50,10.80
2009,07,10,01,51,10.80
2009,07,10,01,52,10.80
2009,07,10,01,53,10.70
2009,07,10,01,54,10.70
2009,07,10,01,55,10.70
2009,07,10,01,56,10.70
2009,07,10,01,57,10.70
2009,07,10,01,58,10.70
2009,07,10,01,59,10.70
2009,07,10,02,00,10.70
2009,07,10,02,01,10.70
2009,07,10,02,02,10.70
2009,07,10,02,03,10.70
2009,07,10,02,04,10.70
2009,07,10,02,05,10.70
2009,07,10,02,06,10.70
2009,07,10,02,07,10.70
2009,07,10,02,08,10.70
2009,07,10,02,09,10.70
2009,07,10,02,10,10.70
2009,07,10,02,11,10.70
2009,07,10,02,12,10.70
2009,07,10,02,13,10.70
2009,07,10,02,14,10.70
2009,07,10,02,15,10.70
2009,07,10,02,16,10.70
2009,07,10,02,17,10.70
2009,07,10,02,18,10.70
2009,07,10,02,19,10.70
2009,07,10,02,20,10.70
2009,07,10,02,21,10.70
2009,07,10,02,22,10.80
2009,07,10,02,23,10.80
2009,07,10,02,24,10.80
2009,07,10,02,25,10.80
2009,07,10,02,26,10.70
2009,07,10,02,27,10.80
2009,07,10,02,28,10.80
2009,07,10,02,29,10.80
2009,07,10,02,30,10.80
2009,07,10,02,31,10.80
2009,07,10,02,32,10.80
2009,07,10,02,33,10.80
2009,07,10,02,34,10.80
2009,07,10,02,35,10.80
2009,07,10,02,36,10.80
2009,07,10,02,37,10.80
2009,07,10,02,38,10.70
2009,07,10,02,39,10.70
2009,07,10,02,40,10.70
2009,07,10,02,41,10.70
2009,07,10,02,42,10.70
2009,07,10,02,43,10.60
2009,07,10,02,44,10.60
2009,07,10,02,45,10.60
2009,07,10,02,46,10.60
2009,07,10,02,47,10.60
2009,07,10,02,48,10.60
2009,07,10,02,49,10.60
2009,07,10,02,50,10.60
2009,07,10,02,51,10.50
2009,07,10,02,52,10.50
2009,07,10,02,53,10.50
2009,07,10,02,54,10.40
2009,07,10,02,55,10.40
2009,07,10,02,56,10.40
2009,07,10,02,57,10.40
2009,07,10,02,58,10.40
2009,07,10,02,59,10.50
2009,07,10,03,00,10.50
2009,07,10,03,01,10.50
2009,07,10,03,02,10.40
2009,07,10,03,03,10.40
2009,07,10,03,04,10.50
2009,07,10,03,05,10.40
2009,07,10,03,06,10.40
2009,07,10,03,07,10.40
2009,07,10,03,08,10.40
2009,07,10,03,09,10.40
2009,07,10,03,10,10.40
2009,07,10,03,11,10.40
2009,07,10,03,12,10.40
2009,07,10,03,13,10.40
2009,07,10,03,14,10.40
2009,07,10,03,15,10.40
2009,07,10,03,16,10.40
2009,07,10,03,17,10.40
2009,07,10,03,18,10.40
2009,07,10,03,19,10.40
2009,07,10,03,20,10.40
2009,07,10,03,21,10.40
2009,07,10,03,22,10.40
2009,07,10,03,23,10.40
2009,07,10,03,24,10.40
2009,07,10,03,25,10.40
2009,07,10,03,26,10.50
2009,07,10,03,27,10.50
2009,07,10,03,28,10.40
2009,07,10,03,29,10.40
2009,07,10,03,30,10.40
2009,07,10,03,31,10.40
2009,07,10,03,32,10.40
2009,07,10,03,33,10.30
2009,07,10,03,34,10.30
2009,07,10,03,35,10.30
2009,07,10,03,36,10.30
2009,07,10,03,37,10.30
2009,07,10,03,38,10.30
2009,07,10,03,39,10.30
2009,07,10,03,40,10.30
2009,07,10,03,41,10.30
2009,07,10,03,42,10.30
2009,07,10,03,43,10.30
2009,07,10,03,44,10.30
2009,07,10,03,45,10.30
2009,07,10,03,46,10.30
2009,07,10,03,47,10.30
2009,07,10,03,48,10.30
2009,07,10,03,49,10.30
2009,07,10,03,50,10.30
2009,07,10,03,51,10.30
2009,07,10,03,52,10.30
2009,07,10,03,53,10.30
2009,07,10,03,54,10.30
2009,07,10,03,55,10.30
2009,07,10,03,56,10.30
2009,07,10,03,57,10.30
2009,07,10,03,58,10.20
2009,07,10,03,59,10.20
2009,07,10,04,00,10.20
2009,07,10,04,01,10.20
2009,07,10,04,02,10.20
2009,07,10,04,03,10.20
2009,07,10,04,04,10.20
2009,07,10,04,05,10.20
2009,07,10,04,06,10.20
2009,07,10,04,07,10.20
2009,07,10,04,08,10.20
2009,07,10,04,09,10.20
2009,07,10,04,10,10.20
2009,07,10,04,11,10.20
2009,07,10,04,12,10.20
2009,07,10,04,13,10.10
2009,07,10,04,14,10.10
2009,07,10,04,15,10.10
2009,07,10,04,16,10.10
2009,07,10,04,17,10.10
2009,07,10,04,18,10.10
2009,07,10,04,19,10.10
2009,07,10,04,20,10.10
2009,07,10,04,21,10.10
2009,07,10,04,22,10.10
2009,07,10,04,23,10.10
2009,07,10,04,24,10.10
2009,07,10,04,25,10.00
2009,07,10,04,26,10.00
2009,07,10,04,27,10.10
2009,07,10,04,28,10.10
2009,07,10,04,29,10.10
2009,07,10,04,30,10.10
2009,07,10,04,31,10.10
2009,07,10,04,32,10.10
2009,07,10,04,33,10.10
2009,07,10,04,34,10.10
2009,07,10,04,35,10.10
2009,07,10,04,36,10.10
2009,07,10,04,37,10.10
2009,07,10,04,38,10.10
2009,07,10,04,39,10.10
2009,07,10,04,40,10.10
2009,07,10,04,41,10.10
2009,07,10,04,42,10.10
2009,07,10,04,43,10.10
2009,07,10,04,44,10.10
2009,07,10,04,45,10.10
2009,07,10,04,46,10.10
2009,07,10,04,47,10.10
2009,07,10,04,48,10.20
2009,07,10,04,49,10.20
2009,07,10,04,50,10.20
2009,07,10,04,51,10.20
2009,07,10,04,52,10.20
2009,07,10,04,53,10.20
2009,07,10,04,54,10.20
2009,07,10,04,55,10.20
2009,07,10,04,56,10.20
2009,07,10,04,57,10.20
2009,07,10,04,58,10.20
2009,07,10,04,59,10.30
2009,07,10,05,00,10.30
2009,07,10,05,01,10.20
2009,07,10,05,02,10.20
2009,07,10,05,03,10.20
2009,07,10,05,04,10.20
2009,07,10,05,05,10.20
2009,07,10,05,06,10.20
2009,07,10,05,07,10.20
2009,07,10,05,08,10.20
2009,07,10,05,09,10.20
2009,07,10,05,10,10.20
2009,07,10,05,11,10.10
2009,07,10,05,12,10.10
2009,07,10,05,13,10.10
2009,07,10,05,14,10.10
2009,07,10,05,15,10.10
2009,07,10,05,16,10.10
2009,07,10,05,17,10.10
2009,07,10,05,18,10.10
2009,07,10,05,19,10.10
2009,07,10,05,20,10.10
2009,07,10,05,21,10.10
2009,07,10,05,22,10.10
2009,07,10,05,23,10.10
2009,07,10,05,24,10.10
2009,07,10,05,25,10.10
2009,07,10,05,26,10.10
2009,07,10,05,27,10.10
2009,07,10,05,28,10.10
2009,07,10,05,29,10.10
2009,07,10,05,30,10.20
2009,07,10,05,31,10.20
2009,07,10,05,32,10.20
2009,07,10,05,33,10.20
2009,07,10,05,34,10.20
2009,07,10,05,35,10.10
2009,07,10,05,36,10.10
2009,07,10,05,37,10.10
2009,07,10,05,38,10.10
2009,07,10,05,39,10.10
2009,07,10,05,40,10.10
2009,07,10,05,41,10.10
2009,07,10,05,42,10.10
2009,07,10,05,43,10.10
2009,07,10,05,44,10.10
2009,07,10,05,45,10.10
2009,07,10,05,46,10.10
2009,07,10,05,47,10.10
2009,07,10,05,48,10.10
2009,07,10,05,49,10.10
2009,07,10,05,50,10.10
2009,07,10,05,51,10.10
2009,07,10,05,52,10.10
2009,07,10,05,53,10.10
2009,07,10,05,54,10.10
2009,07,10,05,55,10.10
2009,07,10,05,56,10.10
2009,07,10,05,57,10.10
2009,07,10,05,58,10.10
2009,07,10,05,59,10.10
2009,07,10,06,00,10.10
2009,07,10,06,01,10.10
2009,07,10,06,02,10.10
2009,07,10,06,03,10.10
2009,07,10,06,04,10.10
2009,07,10,06,05,10.10
2009,07,10,06,06,10.10
2009,07,10,06,07,10.10
2009,07,10,06,08,10.10
2009,07,10,06,09,10.10
2009,07,10,06,10,10.10
2009,07,10,06,11,10.10
2009,07,10,06,12,10.10
2009,07,10,06,13,10.10
2009,07,10,06,14,10.10
2009,07,10,06,15,10.10
2009,07,10,06,16,10.20
2009,07,10,06,17,10.20
2009,07,10,06,18,10.20
2009,07,10,06,19,10.20
2009,07,10,06,20,10.20
2009,07,10,06,21,10.30
2009,07,10,06,22,10.30
2009,07,10,06,23,10.30
2009,07,10,06,24,10.30
2009,07,10,06,25,10.30
2009,07,10,06,26,10.30
2009,07,10,06,27,10.30
2009,07,10,06,28,10.30
2009,07,10,06,29,10.30
2009,07,10,06,30,10.30
2009,07,10,06,31,10.30
2009,07,10,06,32,10.40
2009,07,10,06,33,10.40
2009,07,10,06,34,10.40
2009,07,10,06,35,10.50
2009,07,10,06,36,10.50
2009,07,10,06,37,10.60
2009,07,10,06,38,10.60
2009,07,10,06,39,10.60
2009,07,10,06,40,10.70
2009,07,10,06,41,10.70
2009,07,10,06,42,10.80
2009,07,10,06,43,10.80
2009,07,10,06,44,10.90
2009,07,10,06,45,10.90
2009,07,10,06,46,11.00
2009,07,10,06,47,11.10
2009,07,10,06,48,11.10
2009,07,10,06,49,11.20
2009,07,10,06,50,11.20
2009,07,10,06,51,11.20
2009,07,10,06,52,11.20
2009,07,10,06,53,11.20
2009,07,10,06,54,11.20
2009,07,10,06,55,11.20
2009,07,10,06,56,11.20
2009,07,10,06,57,11.20
2009,07,10,06,58,11.20
2009,07,10,06,59,11.20
2009,07,10,07,00,11.20
2009,07,10,07,01,11.20
2009,07,10,07,02,11.30
2009,07,10,07,03,11.30
2009,07,10,07,04,11.30
2009,07,10,07,05,11.40
2009,07,10,07,06,11.40
2009,07,10,07,07,11.40
2009,07,10,07,08,11.40
2009,07,10,07,09,11.50
2009,07,10,07,10,11.50
2009,07,10,07,11,11.60
2009,07,10,07,12,11.60
2009,07,10,07,13,11.60
2009,07,10,07,14,11.60
2009,07,10,07,15,11.60
2009,07,10,07,16,11.60
2009,07,10,07,17,11.60
2009,07,10,07,18,11.70
2009,07,10,07,19,11.80
2009,07,10,07,20,11.90
2009,07,10,07,21,11.90
2009,07,10,07,22,12.00
2009,07,10,07,23,12.00
2009,07,10,07,24,12.10
2009,07,10,07,25,12.10
2009,07,10,07,26,12.10
2009,07,10,07,27,12.10
2009,07,10,07,28,12.20
2009,07,10,07,29,12.20
2009,07,10,07,30,12.20
2009,07,10,07,31,12.30
2009,07,10,07,32,12.30
2009,07,10,07,33,12.30
2009,07,10,07,34,12.40
2009,07,10,07,35,12.40
2009,07,10,07,36,12.40
2009,07,10,07,37,12.50
2009,07,10,07,38,12.50
2009,07,10,07,39,12.60
2009,07,10,07,40,12.60
2009,07,10,07,41,12.70
2009,07,10,07,42,12.70
2009,07,10,07,43,12.80
2009,07,10,07,44,12.90
2009,07,10,07,45,12.90
2009,07,10,07,46,13.00
2009,07,10,07,47,13.00
2009,07,10,07,48,13.10
2009,07,10,07,49,13.10
2009,07,10,07,50,13.20
2009,07,10,07,51,13.20
2009,07,10,07,52,13.30
2009,07,10,07,53,13.40
2009,07,10,07,54,13.50
2009,07,10,07,55,13.50
2009,07,10,07,56,13.60
2009,07,10,07,57,13.70
2009,07,10,07,58,13.70
2009,07,10,07,59,13.80
2009,07,10,08,00,13.90
2009,07,10,08,01,13.90
2009,07,10,08,02,14.00
2009,07,10,08,03,14.00
2009,07,10,08,04,14.10
2009,07,10,08,05,14.10
2009,07,10,08,06,14.10
2009,07,10,08,07,14.20
2009,07,10,08,08,14.20
2009,07,10,08,09,14.20
2009,07,10,08,10,14.30
2009,07,10,08,11,14.30
2009,07,10,08,12,14.30
2009,07,10,08,13,14.30
2009,07,10,08,14,14.30
2009,07,10,08,15,14.40
2009,07,10,08,16,14.40
2009,07,10,08,17,14.50
2009,07,10,08,18,14.60
2009,07,10,08,19,14.60
2009,07,10,08,20,14.70
2009,07,10,08,21,14.70
2009,07,10,08,22,14.70
2009,07,10,08,23,14.80
2009,07,10,08,24,14.90
2009,07,10,08,25,15.00
2009,07,10,08,26,15.00
2009,07,10,08,27,15.00
2009,07,10,08,28,15.00
2009,07,10,08,29,15.00
2009,07,10,08,30,15.00
2009,07,10,08,31,15.00
2009,07,10,08,32,15.00
2009,07,10,08,33,15.10
2009,07,10,08,34,15.20
2009,07,10,08,35,15.30
2009,07,10,08,36,15.40
2009,07,10,08,37,15.50
2009,07,10,08,38,15.60
2009,07,10,08,39,15.70
2009,07,10,08,40,15.80
2009,07,10,08,41,15.90
2009,07,10,08,42,15.90
2009,07,10,08,43,16.00
2009,07,10,08,44,16.00
2009,07,10,08,45,16.10
2009,07,10,08,46,16.10
2009,07,10,08,47,16.10
2009,07,10,08,48,16.20
2009,07,10,08,49,16.20
2009,07,10,08,50,16.30
2009,07,10,08,51,16.30
2009,07,10,08,52,16.40
2009,07,10,08,53,16.50
2009,07,10,08,54,16.60
2009,07,10,08,55,16.70
2009,07,10,08,56,16.70
2009,07,10,08,57,16.80
2009,07,10,08,58,16.90
2009,07,10,08,59,17.00
2009,07,10,09,00,17.10
2009,07,10,09,01,17.20
2009,07,10,09,02,17.20
2009,07,10,09,03,17.30
2009,07,10,09,04,17.40
2009,07,10,09,05,17.40
2009,07,10,09,06,17.50
2009,07,10,09,07,17.50
2009,07,10,09,08,17.60
2009,07,10,09,09,17.60
2009,07,10,09,10,17.70
2009,07,10,09,11,17.80
2009,07,10,09,12,17.80
2009,07,10,09,13,17.80
2009,07,10,09,14,17.80
2009,07,10,09,15,17.80
2009,07,10,09,16,17.80
2009,07,10,09,17,17.80
2009,07,10,09,18,17.80
2009,07,10,09,19,17.90
2009,07,10,09,20,17.90
2009,07,10,09,21,18.00
2009,07,10,09,22,18.10
2009,07,10,09,23,18.20
2009,07,10,09,24,18.30
2009,07,10,09,25,18.50
2009,07,10,09,26,18.60
2009,07,10,09,27,18.70
2009,07,10,09,28,18.80
2009,07,10,09,29,18.90
2009,07,10,09,30,19.00
2009,07,10,09,31,19.10
2009,07,10,09,32,19.20
2009,07,10,09,33,19.30
2009,07,10,09,34,19.30
2009,07,10,09,35,19.30
2009,07,10,09,36,19.20
2009,07,10,09,37,19.10
2009,07,10,09,38,18.90
2009,07,10,09,39,18.70
2009,07,10,09,40,18.50
2009,07,10,09,41,18.40
2009,07,10,09,42,18.30
2009,07,10,09,43,18.10
2009,07,10,09,44,18.00
2009,07,10,09,45,17.90
2009,07,10,09,46,17.80
2009,07,10,09,47,17.70
2009,07,10,09,48,17.60
2009,07,10,09,49,17.50
2009,07,10,09,50,17.40
2009,07,10,09,51,17.40
2009,07,10,09,52,17.30
2009,07,10,09,53,17.30
2009,07,10,09,54,17.20
2009,07,10,09,55,17.20
2009,07,10,09,56,17.20
2009,07,10,09,57,17.20
2009,07,10,09,58,17.30
2009,07,10,09,59,17.30
2009,07,10,10,00,17.30
2009,07,10,10,01,17.40
2009,07,10,10,02,17.40
2009,07,10,10,03,17.40
2009,07,10,10,04,17.50
2009,07,10,10,05,17.60
2009,07,10,10,06,17.60
2009,07,10,10,07,17.60
2009,07,10,10,08,17.70
2009,07,10,10,09,17.70
2009,07,10,10,10,17.80
2009,07,10,10,11,17.80
2009,07,10,10,12,17.90
2009,07,10,10,13,17.90
2009,07,10,10,14,17.90
2009,07,10,10,15,18.00
2009,07,10,10,16,18.00
2009,07,10,10,17,18.10
2009,07,10,10,18,18.10
2009,07,10,10,19,18.20
2009,07,10,10,20,18.20
2009,07,10,10,21,18.30
2009,07,10,10,22,18.30
2009,07,10,10,23,18.30
2009,07,10,10,24,18.30
2009,07,10,10,25,18.40
2009,07,10,10,26,18.40
2009,07,10,10,27,18.50
2009,07,10,10,28,18.50
2009,07,10,10,29,18.60
2009,07,10,10,30,18.60
2009,07,10,10,31,18.60
2009,07,10,10,32,18.60
2009,07,10,10,33,18.60
2009,07,10,10,34,18.60
2009,07,10,10,35,18.60
2009,07,10,10,36,18.60
2009,07,10,10,37,18.60
2009,07,10,10,38,18.60
2009,07,10,10,39,18.60
2009,07,10,10,40,18.60
2009,07,10,10,41,18.60
2009,07,10,10,42,18.60
2009,07,10,10,43,18.60
2009,07,10,10,44,18.70
2009,07,10,10,45,18.80
2009,07,10,10,46,18.80
2009,07,10,10,47,18.90
2009,07,10,10,48,18.80
2009,07,10,10,49,18.90
2009,07,10,10,50,18.90
2009,07,10,10,51,18.90
2009,07,10,10,52,19.00
2009,07,10,10,53,19.00
2009,07,10,10,54,19.00
2009,07,10,10,55,19.10
2009,07,10,10,56,19.10
2009,07,10,10,57,19.20
2009,07,10,10,58,19.20
2009,07,10,10,59,19.20
2009,07,10,11,00,19.20
2009,07,10,11,01,19.20
2009,07,10,11,02,19.20
2009,07,10,11,03,19.10
2009,07,10,11,04,19.10
2009,07,10,11,05,19.00
2009,07,10,11,06,19.00
2009,07,10,11,07,18.90
2009,07,10,11,08,18.90
2009,07,10,11,09,18.90
2009,07,10,11,10,18.90
2009,07,10,11,11,18.90
2009,07,10,11,12,18.90
2009,07,10,11,13,19.00
2009,07,10,11,14,19.00
2009,07,10,11,15,19.00
2009,07,10,11,16,19.10
2009,07,10,11,17,19.10
2009,07,10,11,18,19.10
2009,07,10,11,19,19.10
2009,07,10,11,20,19.10
2009,07,10,11,21,19.00
2009,07,10,11,22,19.10
2009,07,10,11,23,19.10
2009,07,10,11,24,19.10
2009,07,10,11,25,19.10
2009,07,10,11,26,19.10
2009,07,10,11,27,19.10
2009,07,10,11,28,19.10
2009,07,10,11,29,19.10
2009,07,10,11,30,19.20
2009,07,10,11,31,19.20
2009,07,10,11,32,19.20
2009,07,10,11,33,19.20
2009,07,10,11,34,19.20
2009,07,10,11,35,19.30
2009,07,10,11,36,19.30
2009,07,10,11,37,19.30
2009,07,10,11,38,19.40
2009,07,10,11,39,19.50
2009,07,10,11,40,19.60
2009,07,10,11,41,19.70
2009,07,10,11,42,19.70
2009,07,10,11,43,19.70
2009,07,10,11,44,19.70
2009,07,10,11,45,19.70
2009,07,10,11,46,19.70
2009,07,10,11,47,19.70
2009,07,10,11,48,19.70
2009,07,10,11,49,19.60
2009,07,10,11,50,19.60
2009,07,10,11,51,19.50
2009,07,10,11,52,19.40
2009,07,10,11,53,19.30
2009,07,10,11,54,19.30
2009,07,10,11,55,19.30
2009,07,10,11,56,19.30
2009,07,10,11,57,19.30
2009,07,10,11,58,19.20
2009,07,10,11,59,19.10
2009,07,10,12,00,19.00
2009,07,10,12,01,19.00
2009,07,10,12,02,18.90
2009,07,10,12,03,18.90
2009,07,10,12,04,18.90
2009,07,10,12,05,18.90
2009,07,10,12,06,19.00
2009,07,10,12,07,19.10
2009,07,10,12,08,19.20
2009,07,10,12,09,19.20
2009,07,10,12,10,19.20
2009,07,10,12,11,19.30
2009,07,10,12,12,19.30
2009,07,10,12,13,19.30
2009,07,10,12,14,19.40
2009,07,10,12,15,19.50
2009,07,10,12,16,19.60
2009,07,10,12,17,19.60
2009,07,10,12,18,19.70
2009,07,10,12,19,19.70
2009,07,10,12,20,19.70
2009,07,10,12,21,19.80
2009,07,10,12,22,19.90
2009,07,10,12,23,19.90
2009,07,10,12,24,19.90
2009,07,10,12,25,20.00
2009,07,10,12,26,20.00
2009,07,10,12,27,20.00
2009,07,10,12,28,20.10
2009,07,10,12,29,20.10
2009,07,10,12,30,20.00
2009,07,10,12,31,20.00
2009,07,10,12,32,20.10
2009,07,10,12,33,20.10
2009,07,10,12,34,20.10
2009,07,10,12,35,20.00
2009,07,10,12,36,19.90
2009,07,10,12,37,19.90
2009,07,10,12,38,19.90
2009,07,10,12,39,19.80
2009,07,10,12,40,19.80
2009,07,10,12,41,19.80
2009,07,10,12,42,19.80
2009,07,10,12,43,19.90
2009,07,10,12,44,19.90
2009,07,10,12,45,19.90
2009,07,10,12,46,19.90
2009,07,10,12,47,19.90
2009,07,10,12,48,19.90
2009,07,10,12,49,20.00
2009,07,10,12,50,20.00
2009,07,10,12,51,20.10
2009,07,10,12,52,20.20
2009,07,10,12,53,20.30
2009,07,10,12,54,20.40
2009,07,10,12,55,20.50
2009,07,10,12,56,20.60
2009,07,10,12,57,20.70
2009,07,10,12,58,20.70
2009,07,10,12,59,20.80
2009,07,10,13,00,20.80
2009,07,10,13,01,20.90
2009,07,10,13,02,20.90
2009,07,10,13,03,20.90
2009,07,10,13,04,20.90
2009,07,10,13,05,20.90
2009,07,10,13,06,21.00
2009,07,10,13,07,21.00
2009,07,10,13,08,21.10
2009,07,10,13,09,21.10
2009,07,10,13,10,21.10
2009,07,10,13,11,21.20
2009,07,10,13,12,21.20
2009,07,10,13,13,21.30
2009,07,10,13,14,21.30
2009,07,10,13,15,21.30
2009,07,10,13,16,21.30
2009,07,10,13,17,21.30
2009,07,10,13,18,21.30
2009,07,10,13,19,21.30
2009,07,10,13,20,21.30
2009,07,10,13,21,21.30
2009,07,10,13,22,21.30
2009,07,10,13,23,21.30
2009,07,10,13,24,21.20
2009,07,10,13,25,21.20
2009,07,10,13,26,21.30
2009,07,10,13,27,21.30
2009,07,10,13,28,21.30
2009,07,10,13,29,21.40
2009,07,10,13,30,21.40
2009,07,10,13,31,21.30
2009,07,10,13,32,21.20
2009,07,10,13,33,21.10
2009,07,10,13,34,21.10
2009,07,10,13,35,21.00
2009,07,10,13,36,20.90
2009,07,10,13,37,20.90
2009,07,10,13,38,20.90
2009,07,10,13,39,20.80
2009,07,10,13,40,20.70
2009,07,10,13,41,20.60
2009,07,10,13,42,20.50
2009,07,10,13,43,20.50
2009,07,10,13,44,20.40
2009,07,10,13,45,20.40
2009,07,10,13,46,20.50
2009,07,10,13,47,20.50
2009,07,10,13,48,20.70
2009,07,10,13,49,20.80
2009,07,10,13,50,20.80
2009,07,10,13,51,20.90
2009,07,10,13,52,21.00
2009,07,10,13,53,21.10
2009,07,10,13,54,21.10
2009,07,10,13,55,21.10
2009,07,10,13,56,21.20
2009,07,10,13,57,21.20
2009,07,10,13,58,21.30
2009,07,10,13,59,21.20
2009,07,10,14,00,21.20
2009,07,10,14,01,21.20
2009,07,10,14,02,21.20
2009,07,10,14,03,21.20
2009,07,10,14,04,21.20
2009,07,10,14,05,21.20
2009,07,10,14,06,21.20
2009,07,10,14,07,21.10
2009,07,10,14,08,21.10
2009,07,10,14,09,21.10
2009,07,10,14,10,21.10
2009,07,10,14,11,21.20
2009,07,10,14,12,21.20
2009,07,10,14,13,21.20
2009,07,10,14,14,21.20
2009,07,10,14,15,21.20
2009,07,10,14,16,21.20
2009,07,10,14,17,21.20
2009,07,10,14,18,21.20
2009,07,10,14,19,21.20
2009,07,10,14,20,21.20
2009,07,10,14,21,21.30
2009,07,10,14,22,21.30
2009,07,10,14,23,21.30
2009,07,10,14,24,21.30
2009,07,10,14,25,21.30
2009,07,10,14,26,21.20
2009,07,10,14,27,21.20
2009,07,10,14,28,21.20
2009,07,10,14,29,21.10
2009,07,10,14,30,21.00
2009,07,10,14,31,21.00
2009,07,10,14,32,20.90
2009,07,10,14,33,20.90
2009,07,10,14,34,20.90
2009,07,10,14,35,21.00
2009,07,10,14,36,21.00
2009,07,10,14,37,21.10
2009,07,10,14,38,21.00
2009,07,10,14,39,21.00
2009,07,10,14,40,20.90
2009,07,10,14,41,20.90
2009,07,10,14,42,20.90
2009,07,10,14,43,20.80
2009,07,10,14,44,20.80
2009,07,10,14,45,20.70
2009,07,10,14,46,20.60
2009,07,10,14,47,20.60
2009,07,10,14,48,20.50
2009,07,10,14,49,20.50
2009,07,10,14,50,20.40
2009,07,10,14,51,20.40
2009,07,10,14,52,20.30
2009,07,10,14,53,20.30
2009,07,10,14,54,20.30
2009,07,10,14,55,20.30
2009,07,10,14,56,20.40
2009,07,10,14,57,20.40
2009,07,10,14,58,20.50
2009,07,10,14,59,20.50
2009,07,10,15,00,20.60
2009,07,10,15,01,20.60
2009,07,10,15,02,20.70
2009,07,10,15,03,20.70
2009,07,10,15,04,20.70
2009,07,10,15,05,20.70
2009,07,10,15,06,20.70
2009,07,10,15,07,20.70
2009,07,10,15,08,20.70
2009,07,10,15,09,20.70
2009,07,10,15,10,20.80
2009,07,10,15,11,20.80
2009,07,10,15,12,20.90
2009,07,10,15,13,20.90
2009,07,10,15,14,21.00
2009,07,10,15,15,21.00
2009,07,10,15,16,21.10
2009,07,10,15,17,21.10
2009,07,10,15,18,21.10
2009,07,10,15,19,21.00
2009,07,10,15,20,21.00
2009,07,10,15,21,20.90
2009,07,10,15,22,20.90
2009,07,10,15,23,20.90
2009,07,10,15,24,20.90
2009,07,10,15,25,20.90
2009,07,10,15,26,20.90
2009,07,10,15,27,21.00
2009,07,10,15,28,21.00
2009,07,10,15,29,21.00
2009,07,10,15,30,21.00
2009,07,10,15,31,21.00
2009,07,10,15,32,21.10
2009,07,10,15,33,21.00
2009,07,10,15,34,21.00
2009,07,10,15,35,21.00
2009,07,10,15,36,21.00
2009,07,10,15,37,21.10
2009,07,10,15,38,21.10
2009,07,10,15,39,21.10
2009,07,10,15,40,21.10
2009,07,10,15,41,21.20
2009,07,10,15,42,21.20
2009,07,10,15,43,21.30
2009,07,10,15,44,21.30
2009,07,10,15,45,21.40
2009,07,10,15,46,21.50
2009,07,10,15,47,21.50
2009,07,10,15,48,21.50
2009,07,10,15,49,21.40
2009,07,10,15,50,21.40
2009,07,10,15,51,21.30
2009,07,10,15,52,21.20
2009,07,10,15,53,21.10
2009,07,10,15,54,21.00
2009,07,10,15,55,20.90
2009,07,10,15,56,20.80
2009,07,10,15,57,20.70
2009,07,10,15,58,20.70
2009,07,10,15,59,20.60
2009,07,10,16,00,20.60
2009,07,10,16,01,20.50
2009,07,10,16,02,20.40
2009,07,10,16,03,20.40
2009,07,10,16,04,20.40
2009,07,10,16,05,20.40
2009,07,10,16,06,20.40
2009,07,10,16,07,20.40
2009,07,10,16,08,20.50
2009,07,10,16,09,20.50
2009,07,10,16,10,20.60
2009,07,10,16,11,20.70
2009,07,10,16,12,20.70
2009,07,10,16,13,20.70
2009,07,10,16,14,20.70
2009,07,10,16,15,20.80
2009,07,10,16,16,20.80
2009,07,10,16,17,20.80
2009,07,10,16,18,20.80
2009,07,10,16,19,20.80
2009,07,10,16,20,20.80
2009,07,10,16,21,20.90
2009,07,10,16,22,21.00
2009,07,10,16,23,21.10
2009,07,10,16,24,21.20
2009,07,10,16,25,21.30
2009,07,10,16,26,21.40
2009,07,10,16,27,21.50
2009,07,10,16,28,21.50
2009,07,10,16,29,21.60
2009,07,10,16,30,21.60
2009,07,10,16,31,21.60
2009,07,10,16,32,21.60
2009,07,10,16,33,21.50
2009,07,10,16,34,21.50
2009,07,10,16,35,21.40
2009,07,10,16,36,21.40
2009,07,10,16,37,21.40
2009,07,10,16,38,21.30
2009,07,10,16,39,21.40
2009,07,10,16,40,21.40
2009,07,10,16,41,21.40
2009,07,10,16,42,21.40
2009,07,10,16,43,21.40
2009,07,10,16,44,21.40
2009,07,10,16,45,21.40
2009,07,10,16,46,21.40
2009,07,10,16,47,21.40
2009,07,10,16,48,21.40
2009,07,10,16,49,21.40
2009,07,10,16,50,21.40
2009,07,10,16,51,21.40
2009,07,10,16,52,21.40
2009,07,10,16,53,21.40
2009,07,10,16,54,21.40
2009,07,10,16,55,21.40
2009,07,10,16,56,21.40
2009,07,10,16,57,21.50
2009,07,10,16,58,21.50
2009,07,10,16,59,21.50
2009,07,10,17,00,21.60
2009,07,10,17,01,21.60
2009,07,10,17,02,21.60
2009,07,10,17,03,21.70
2009,07,10,17,04,21.70
2009,07,10,17,05,21.80
2009,07,10,17,06,21.80
2009,07,10,17,07,21.90
2009,07,10,17,08,22.00
2009,07,10,17,09,22.10
2009,07,10,17,10,22.30
2009,07,10,17,11,22.40
2009,07,10,17,12,22.50
2009,07,10,17,13,22.60
2009,07,10,17,14,22.60
2009,07,10,17,15,22.70
2009,07,10,17,16,22.70
2009,07,10,17,17,22.80
2009,07,10,17,18,22.80
2009,07,10,17,19,22.90